SWR642 LSZH-LEIB

Flight info

Callsign SWR642
Flight time 1h 51m
Altitude 33000
Route VEBIT T50 ROTOS Z669 ULMES DCT VADAR/N0470F410 DCT GEVEA DCT INCUS DCT BALSI DCT RETNO DCT TUPOX DCT MTG DCT DIVKO DCT VATIR DCT PIVUS DCT SULID DCT DIMIB DCT POS
Aircraft A343/H-SDE2E3FGHIJ4J5M1RWXY/LB1D1

Departure

Time 2026-05-06 10:47
Airport Zürich Airport (LSZH)

Arrival

Time 2026-05-06 12:38
Airport Ibiza Airport (LEIB)
Time Latitude Longitude Altitude Speed Heading
2026-05-06 10:06 47.44653 8.56264 1409 ft 0 kts 65°
2026-05-06 10:30 47.44651 8.56258 1410 ft 4 kts 65°
2026-05-06 10:30 47.44638 8.56223 1410 ft 4 kts 55°
2026-05-06 10:30 47.44621 8.56192 1410 ft 4 kts 38°
2026-05-06 10:31 47.44599 8.56175 1410 ft 4 kts 357°
2026-05-06 10:31 47.44589 8.56178 1410 ft 0 kts 335°
2026-05-06 10:34 47.44590 8.56177 1410 ft 1 kts 335°
2026-05-06 10:34 47.44611 8.56163 1410 ft 7 kts 335°
2026-05-06 10:34 47.44670 8.56121 1409 ft 9 kts 333°
2026-05-06 10:35 47.44718 8.56087 1410 ft 6 kts 335°
2026-05-06 10:35 47.44755 8.56061 1410 ft 6 kts 334°
2026-05-06 10:35 47.44791 8.56036 1410 ft 5 kts 334°
2026-05-06 10:35 47.44817 8.56017 1411 ft 3 kts 334°
2026-05-06 10:36 47.44829 8.56009 1409 ft 1 kts 335°
2026-05-06 10:36 47.44857 8.55990 1411 ft 7 kts 335°
2026-05-06 10:36 47.44919 8.55946 1412 ft 11 kts 330°
2026-05-06 10:36 47.44947 8.55871 1412 ft 8 kts 278°
2026-05-06 10:37 47.44954 8.55788 1410 ft 9 kts 275°
2026-05-06 10:37 47.44927 8.55716 1406 ft 8 kts 206°
2026-05-06 10:37 47.44886 8.55723 1408 ft 6 kts 163°
2026-05-06 10:37 47.44846 8.55747 1406 ft 6 kts 156°
2026-05-06 10:38 47.44807 8.55776 1405 ft 6 kts 153°
2026-05-06 10:38 47.44768 8.55803 1403 ft 6 kts 155°
2026-05-06 10:38 47.44727 8.55831 1405 ft 7 kts 155°
2026-05-06 10:38 47.44684 8.55862 1401 ft 7 kts 154°
2026-05-06 10:39 47.44652 8.55877 1409 ft 2 kts 179°
2026-05-06 10:39 47.44642 8.55870 1398 ft 1 kts 205°
2026-05-06 10:39 47.44633 8.55856 1407 ft 3 kts 228°
2026-05-06 10:39 47.44624 8.55832 1406 ft 0 kts 242°
2026-05-06 10:44 47.44619 8.55816 1403 ft 7 kts 242°
2026-05-06 10:44 47.44589 8.55710 1403 ft 11 kts 260°
2026-05-06 10:45 47.44615 8.55632 1405 ft 8 kts 321°
2026-05-06 10:45 47.44641 8.55612 1405 ft 0 kts 335°
2026-05-06 10:46 47.44731 8.55550 1403 ft 41 kts 335°
2026-05-06 10:46 47.45180 8.55241 1411 ft 99 kts 335°
2026-05-06 10:46 47.45989 8.54685 1405 ft 148 kts 335°
2026-05-06 10:46 47.47030 8.53971 1649 ft 172 kts 335°
2026-05-06 10:47 47.48126 8.53249 2335 ft 176 kts 336°
2026-05-06 10:47 47.49291 8.52492 2891 ft 194 kts 332°
2026-05-06 10:47 47.50570 8.51536 3502 ft 215 kts 331°
2026-05-06 10:47 47.51904 8.50489 4526 ft 219 kts 327°
2026-05-06 10:48 47.53056 8.49017 5487 ft 221 kts 305°
2026-05-06 10:48 47.53706 8.46961 6485 ft 225 kts 279°
2026-05-06 10:48 47.53682 8.44631 7395 ft 232 kts 253°
2026-05-06 10:48 47.53082 8.42400 8329 ft 239 kts 242°
2026-05-06 10:49 47.52248 8.40186 8836 ft 260 kts 232°
2026-05-06 10:49 47.50851 8.38393 9514 ft 268 kts 204°
2026-05-06 10:49 47.49064 8.37564 10274 ft 275 kts 192°
2026-05-06 10:49 47.47142 8.36992 10681 ft 294 kts 191°
2026-05-06 10:50 47.45066 8.36402 11142 ft 313 kts 191°
2026-05-06 10:50 47.42872 8.35761 11721 ft 329 kts 191°
2026-05-06 10:50 47.40621 8.34730 12521 ft 338 kts 205°
2026-05-06 10:50 47.38698 8.32775 13448 ft 344 kts 223°
2026-05-06 10:51 47.37233 8.29927 14072 ft 356 kts 239°
2026-05-06 10:51 47.36056 8.26670 14778 ft 363 kts 242°
2026-05-06 10:51 47.34906 8.23332 15536 ft 367 kts 242°
2026-05-06 10:51 47.33731 8.19956 16262 ft 371 kts 241°
2026-05-06 10:52 47.32554 8.16617 16946 ft 374 kts 241°
2026-05-06 10:52 47.31337 8.13185 17674 ft 378 kts 241°
2026-05-06 10:52 47.30115 8.09732 18351 ft 382 kts 240°
2026-05-06 10:52 47.28880 8.06258 19052 ft 383 kts 240°
2026-05-06 10:53 47.27633 8.02757 19710 ft 386 kts 240°
2026-05-06 10:53 47.26446 7.99182 20341 ft 390 kts 243°
2026-05-06 10:53 47.25350 7.95506 20967 ft 394 kts 244°
2026-05-06 10:53 47.24302 7.91769 21605 ft 397 kts 245°
2026-05-06 10:54 47.23265 7.87979 22250 ft 400 kts 245°
2026-05-06 10:54 47.22225 7.84169 22889 ft 402 kts 245°
2026-05-06 10:54 47.21181 7.80376 23479 ft 405 kts 244°
2026-05-06 10:54 47.20117 7.76549 23983 ft 406 kts 244°
2026-05-06 10:55 47.18860 7.72824 24567 ft 403 kts 236°
2026-05-06 10:55 47.17296 7.69432 25149 ft 401 kts 231°
2026-05-06 10:55 47.15612 7.66141 25683 ft 401 kts 229°
2026-05-06 10:55 47.13887 7.62912 26235 ft 401 kts 228°
2026-05-06 10:56 47.12140 7.59709 26724 ft 402 kts 228°
2026-05-06 10:56 47.10385 7.56509 27229 ft 403 kts 228°
2026-05-06 10:56 47.08639 7.53322 27740 ft 404 kts 228°
2026-05-06 10:56 47.06884 7.50107 28244 ft 404 kts 228°
2026-05-06 10:57 47.05127 7.46880 28745 ft 404 kts 228°
2026-05-06 10:57 47.03367 7.43643 29201 ft 405 kts 228°
2026-05-06 10:57 47.01603 7.40396 29612 ft 407 kts 228°
2026-05-06 10:57 46.99833 7.37152 29885 ft 412 kts 227°
2026-05-06 10:58 46.98018 7.33845 29970 ft 420 kts 227°
2026-05-06 10:58 46.96178 7.30499 30189 ft 423 kts 227°
2026-05-06 10:58 46.94331 7.27135 30507 ft 424 kts 228°
2026-05-06 10:58 46.92488 7.23768 30940 ft 423 kts 228°
2026-05-06 10:59 46.90655 7.20422 31306 ft 423 kts 228°
2026-05-06 10:59 46.88815 7.17069 31719 ft 422 kts 228°
2026-05-06 10:59 46.86978 7.13728 32091 ft 421 kts 228°
2026-05-06 10:59 46.85168 7.10440 32481 ft 420 kts 228°
2026-05-06 11:00 46.83314 7.07076 32853 ft 419 kts 228°
2026-05-06 11:00 46.81508 7.03804 33207 ft 419 kts 228°
2026-05-06 11:00 46.79680 7.00496 33581 ft 418 kts 228°
2026-05-06 11:00 46.77853 6.97193 33967 ft 416 kts 228°
2026-05-06 11:01 46.76034 6.93909 34226 ft 417 kts 228°
2026-05-06 11:01 46.74207 6.90615 34443 ft 419 kts 228°
2026-05-06 11:01 46.72359 6.87288 34495 ft 424 kts 228°
2026-05-06 11:01 46.70503 6.83952 34705 ft 424 kts 228°
2026-05-06 11:02 46.68643 6.80608 34941 ft 425 kts 229°
2026-05-06 11:02 46.66777 6.77258 35162 ft 426 kts 229°
2026-05-06 11:02 46.64907 6.73915 35388 ft 426 kts 228°
2026-05-06 11:02 46.62969 6.70710 35574 ft 427 kts 225°
2026-05-06 11:03 46.60937 6.67575 35805 ft 427 kts 225°
2026-05-06 11:03 46.58865 6.64460 36037 ft 428 kts 224°
2026-05-06 11:03 46.56782 6.61335 36236 ft 429 kts 225°
2026-05-06 11:03 46.54711 6.58202 36461 ft 430 kts 225°
2026-05-06 11:04 46.52645 6.55049 36687 ft 431 kts 225°
2026-05-06 11:04 46.50580 6.51877 36910 ft 432 kts 226°
2026-05-06 11:04 46.48517 6.48696 37132 ft 433 kts 226°
2026-05-06 11:04 46.46457 6.45517 37330 ft 434 kts 226°
2026-05-06 11:05 46.44388 6.42325 37540 ft 436 kts 226°
2026-05-06 11:05 46.42301 6.39109 37646 ft 438 kts 226°
2026-05-06 11:05 46.40236 6.35933 37862 ft 438 kts 226°
2026-05-06 11:05 46.38148 6.32727 38118 ft 437 kts 226°
2026-05-06 11:06 46.36062 6.29528 38431 ft 435 kts 226°
2026-05-06 11:06 46.33984 6.26345 38631 ft 435 kts 226°
2026-05-06 11:06 46.31900 6.23158 38776 ft 436 kts 226°
2026-05-06 11:06 46.29800 6.20004 38889 ft 437 kts 223°
2026-05-06 11:07 46.27490 6.17138 38913 ft 439 kts 216°
2026-05-06 11:07 46.22133 6.12965 38911 ft 438 kts 200°
2026-05-06 11:08 46.16185 6.11028 38910 ft 439 kts 191°
2026-05-06 11:08 46.10133 6.09713 38913 ft 440 kts 190°
2026-05-06 11:09 46.04073 6.08451 38938 ft 440 kts 190°
2026-05-06 11:09 45.98020 6.07147 38938 ft 440 kts 191°
2026-05-06 11:10 45.91999 6.05822 38934 ft 440 kts 191°
2026-05-06 11:10 45.85948 6.04485 38938 ft 440 kts 191°
2026-05-06 11:11 45.79900 6.03144 38931 ft 440 kts 191°
2026-05-06 11:11 45.73844 6.01807 38935 ft 441 kts 191°
2026-05-06 11:12 45.67768 6.00470 38966 ft 441 kts 191°
2026-05-06 11:12 45.61701 5.99137 38956 ft 441 kts 191°
2026-05-06 11:13 45.55624 5.97805 38962 ft 441 kts 191°
2026-05-06 11:13 45.49557 5.96477 38955 ft 441 kts 191°
2026-05-06 11:14 45.43556 5.95003 38949 ft 440 kts 194°
2026-05-06 11:14 45.37593 5.93061 38939 ft 439 kts 195°
2026-05-06 11:15 45.31651 5.91087 38930 ft 438 kts 195°
2026-05-06 11:15 45.25694 5.89189 38920 ft 438 kts 195°
2026-05-06 11:16 45.19775 5.87350 38917 ft 438 kts 194°
2026-05-06 11:16 45.13814 5.85508 38922 ft 438 kts 195°
2026-05-06 11:17 45.07891 5.83678 38913 ft 437 kts 195°
2026-05-06 11:17 45.01935 5.81842 38910 ft 437 kts 195°
2026-05-06 11:18 44.95981 5.80012 38915 ft 437 kts 195°
2026-05-06 11:18 44.90074 5.78195 38918 ft 436 kts 195°
2026-05-06 11:19 44.84108 5.76364 38906 ft 436 kts 195°
2026-05-06 11:19 44.78206 5.74557 38912 ft 436 kts 195°
2026-05-06 11:20 44.72264 5.72746 38919 ft 436 kts 195°
2026-05-06 11:20 44.66329 5.70936 38928 ft 436 kts 195°
2026-05-06 11:21 44.60420 5.69137 38909 ft 437 kts 195°
2026-05-06 11:21 44.54455 5.67325 38909 ft 437 kts 195°
2026-05-06 11:22 44.48506 5.65523 38914 ft 438 kts 195°
2026-05-06 11:22 44.42549 5.63724 38915 ft 438 kts 195°
2026-05-06 11:23 44.36705 5.61581 38922 ft 435 kts 202°
2026-05-06 11:23 44.31957 5.59083 38913 ft 434 kts 203°
2026-05-06 11:24 44.26366 5.56009 38908 ft 434 kts 204°
2026-05-06 11:24 44.20760 5.52919 38915 ft 433 kts 204°
2026-05-06 11:25 44.15129 5.49836 38917 ft 434 kts 204°
2026-05-06 11:25 44.09504 5.46773 38910 ft 434 kts 204°
2026-05-06 11:26 44.03885 5.43723 38918 ft 432 kts 204°
2026-05-06 11:26 43.98313 5.40703 38919 ft 430 kts 203°
2026-05-06 11:27 43.92725 5.37678 38915 ft 430 kts 204°
2026-05-06 11:27 43.87141 5.34659 38923 ft 430 kts 204°
2026-05-06 11:28 43.81560 5.31647 38933 ft 431 kts 204°
2026-05-06 11:28 43.76006 5.28657 38932 ft 432 kts 204°
2026-05-06 11:29 43.70386 5.25638 38913 ft 432 kts 204°
2026-05-06 11:29 43.64802 5.22644 38937 ft 432 kts 204°
2026-05-06 11:30 43.59191 5.19641 38935 ft 433 kts 204°
2026-05-06 11:30 43.53589 5.16648 38938 ft 432 kts 204°
2026-05-06 11:31 43.47980 5.13658 38937 ft 432 kts 204°
2026-05-06 11:31 43.42355 5.10665 38932 ft 432 kts 204°
2026-05-06 11:32 43.36978 5.07055 38942 ft 428 kts 214°
2026-05-06 11:32 43.32026 5.02526 38920 ft 428 kts 216°
2026-05-06 11:33 43.27127 4.97884 38937 ft 426 kts 217°
2026-05-06 11:33 43.22255 4.93272 38949 ft 426 kts 216°
2026-05-06 11:34 43.17354 4.88665 38943 ft 428 kts 216°
2026-05-06 11:34 43.12467 4.84091 38928 ft 428 kts 216°
2026-05-06 11:35 43.07562 4.79511 38947 ft 425 kts 216°
2026-05-06 11:35 43.02487 4.75315 38946 ft 426 kts 212°
2026-05-06 11:36 42.97329 4.71371 38951 ft 426 kts 211°
2026-05-06 11:36 42.92166 4.67477 38949 ft 426 kts 211°
2026-05-06 11:37 42.86988 4.63576 38954 ft 423 kts 211°
2026-05-06 11:37 42.81832 4.59690 38952 ft 423 kts 211°
2026-05-06 11:38 42.76679 4.55808 38964 ft 423 kts 211°
2026-05-06 11:38 42.71510 4.51921 38959 ft 425 kts 211°
2026-05-06 11:39 42.66329 4.48034 38961 ft 425 kts 211°
2026-05-06 11:39 42.61146 4.44153 38962 ft 425 kts 211°
2026-05-06 11:40 42.55962 4.40280 38963 ft 425 kts 211°
2026-05-06 11:40 42.50773 4.36409 38955 ft 425 kts 211°
2026-05-06 11:41 42.45602 4.32559 38963 ft 423 kts 211°
2026-05-06 11:41 42.40477 4.28750 38966 ft 422 kts 211°
2026-05-06 11:42 42.35324 4.24927 38966 ft 422 kts 211°
2026-05-06 11:42 42.30170 4.21112 38958 ft 422 kts 211°
2026-05-06 11:43 42.25018 4.17305 38969 ft 422 kts 211°
2026-05-06 11:43 42.19856 4.13498 38969 ft 423 kts 211°
2026-05-06 11:44 42.12124 4.07810 38954 ft 423 kts 211°
2026-05-06 11:44 42.06963 4.04024 38970 ft 422 kts 211°
2026-05-06 11:45 42.01799 4.00242 38967 ft 422 kts 211°
2026-05-06 11:45 41.96614 3.96451 38974 ft 422 kts 211°
2026-05-06 11:46 41.91457 3.92687 38961 ft 422 kts 211°
2026-05-06 11:46 41.86220 3.89094 38968 ft 421 kts 209°
2026-05-06 11:47 41.80955 3.85624 38968 ft 421 kts 209°
2026-05-06 11:47 41.75711 3.82148 38968 ft 421 kts 210°
2026-05-06 11:48 41.70501 3.78669 38959 ft 422 kts 210°
2026-05-06 11:48 41.65237 3.75147 38966 ft 422 kts 210°
2026-05-06 11:49 41.59980 3.71637 38967 ft 422 kts 210°
2026-05-06 11:49 41.54717 3.68131 38968 ft 422 kts 210°
2026-05-06 11:50 41.49489 3.64655 38947 ft 422 kts 210°
2026-05-06 11:50 41.44235 3.61168 38968 ft 421 kts 210°
2026-05-06 11:51 41.38982 3.57689 38968 ft 420 kts 210°
2026-05-06 11:51 41.33742 3.54224 38965 ft 421 kts 210°
2026-05-06 11:52 41.28523 3.50778 38956 ft 420 kts 210°
2026-05-06 11:52 41.23273 3.47320 38966 ft 420 kts 210°
2026-05-06 11:53 41.17900 3.44232 38969 ft 424 kts 201°
2026-05-06 11:53 41.12132 3.42403 38968 ft 427 kts 196°
2026-05-06 11:54 41.06290 3.40864 38955 ft 428 kts 195°
2026-05-06 11:54 41.00447 3.39367 38965 ft 427 kts 196°
2026-05-06 11:55 40.94607 3.37850 38966 ft 427 kts 196°
2026-05-06 11:55 40.88775 3.36320 38966 ft 427 kts 196°
2026-05-06 11:56 40.82970 3.34795 38960 ft 427 kts 196°
2026-05-06 11:56 40.77137 3.33267 38966 ft 427 kts 196°
2026-05-06 11:57 40.71307 3.31743 38966 ft 426 kts 196°
2026-05-06 11:57 40.65492 3.30226 38966 ft 426 kts 196°
2026-05-06 11:58 40.59663 3.28708 38965 ft 426 kts 196°
2026-05-06 11:58 40.53826 3.27190 38966 ft 427 kts 196°
2026-05-06 11:59 40.48009 3.25682 38966 ft 426 kts 196°
2026-05-06 11:59 40.42185 3.24174 38942 ft 426 kts 196°
2026-05-06 12:00 40.36351 3.22666 38968 ft 426 kts 196°
2026-05-06 12:00 40.30512 3.21151 38968 ft 435 kts 196°
2026-05-06 12:01 40.24510 3.19603 38965 ft 444 kts 196°
2026-05-06 12:01 40.18420 3.18038 38958 ft 446 kts 196°
2026-05-06 12:02 40.12352 3.16481 38962 ft 445 kts 196°
2026-05-06 12:02 40.06290 3.14927 38965 ft 444 kts 196°
2026-05-06 12:03 40.00227 3.13374 38963 ft 444 kts 196°
2026-05-06 12:03 39.94168 3.11764 38956 ft 442 kts 200°
2026-05-06 12:04 39.91308 3.10380 38967 ft 435 kts 211°
2026-05-06 12:04 39.88649 3.08533 38962 ft 433 kts 213°
2026-05-06 12:04 39.83397 3.04678 38969 ft 433 kts 213°
2026-05-06 12:05 39.78246 3.00923 38957 ft 418 kts 213°
2026-05-06 12:05 39.73187 2.97245 38953 ft 416 kts 213°
2026-05-06 12:06 39.68193 2.93628 38954 ft 400 kts 213°
2026-05-06 12:06 39.64231 2.90765 38954 ft 387 kts 213°
2026-05-06 12:07 39.60578 2.88121 38941 ft 387 kts 213°
2026-05-06 12:07 39.57289 2.85745 38939 ft 388 kts 213°
2026-05-06 12:08 39.52559 2.82336 38931 ft 388 kts 213°
2026-05-06 12:08 39.47846 2.78945 38922 ft 386 kts 213°
2026-05-06 12:09 39.45515 2.77247 38447 ft 385 kts 215°
2026-05-06 12:09 39.43337 2.75210 37541 ft 388 kts 225°
2026-05-06 12:09 39.41490 2.72656 36813 ft 390 kts 232°
2026-05-06 12:09 39.39793 2.69970 36245 ft 390 kts 232°
2026-05-06 12:10 39.38081 2.67229 35641 ft 391 kts 232°
2026-05-06 12:10 39.36359 2.64478 35029 ft 393 kts 232°
2026-05-06 12:10 39.34628 2.61723 34360 ft 396 kts 232°
2026-05-06 12:10 39.32887 2.58958 33631 ft 399 kts 232°
2026-05-06 12:11 39.31130 2.56174 32842 ft 400 kts 232°
2026-05-06 12:11 39.29346 2.53391 32113 ft 403 kts 230°
2026-05-06 12:11 39.27185 2.51072 31485 ft 420 kts 214°
2026-05-06 12:11 39.24429 2.49626 30856 ft 436 kts 198°
2026-05-06 12:12 39.21410 2.49032 30258 ft 442 kts 191°
2026-05-06 12:12 39.18343 2.48688 29589 ft 442 kts 190°
2026-05-06 12:12 39.15287 2.48379 28893 ft 439 kts 190°
2026-05-06 12:12 39.12246 2.48072 28215 ft 436 kts 190°
2026-05-06 12:13 39.09235 2.47830 27537 ft 435 kts 186°
2026-05-06 12:13 39.06206 2.47916 26898 ft 435 kts 182°
2026-05-06 12:13 39.03186 2.48200 26260 ft 433 kts 181°
2026-05-06 12:13 39.00197 2.48503 25642 ft 430 kts 181°
2026-05-06 12:14 38.97260 2.48519 25477 ft 411 kts 189°
2026-05-06 12:14 38.94464 2.48004 25476 ft 404 kts 198°
2026-05-06 12:14 38.91813 2.46887 25475 ft 399 kts 207°
2026-05-06 12:14 38.89396 2.45153 25475 ft 395 kts 218°
2026-05-06 12:15 38.87349 2.42904 25475 ft 392 kts 228°
2026-05-06 12:15 38.85726 2.40112 25450 ft 390 kts 241°
2026-05-06 12:15 38.84685 2.36898 25448 ft 391 kts 253°
2026-05-06 12:15 38.84311 2.33478 25329 ft 386 kts 267°
2026-05-06 12:16 38.84617 2.30044 24747 ft 388 kts 277°
2026-05-06 12:16 38.85164 2.26658 24241 ft 386 kts 278°
2026-05-06 12:16 38.85732 2.23296 23762 ft 383 kts 278°
2026-05-06 12:16 38.86285 2.20001 23259 ft 380 kts 278°
2026-05-06 12:17 38.86832 2.16707 22776 ft 375 kts 278°
2026-05-06 12:17 38.87371 2.13444 22335 ft 370 kts 278°
2026-05-06 12:17 38.87899 2.10233 21871 ft 366 kts 278°
2026-05-06 12:17 38.88345 2.07059 21568 ft 356 kts 273°
2026-05-06 12:18 38.88429 2.03884 20755 ft 358 kts 264°
2026-05-06 12:18 38.88192 2.00658 19767 ft 368 kts 261°
2026-05-06 12:18 38.87868 1.97383 19143 ft 369 kts 261°
2026-05-06 12:18 38.87534 1.94132 18662 ft 365 kts 261°
2026-05-06 12:19 38.87199 1.90909 18212 ft 361 kts 261°
2026-05-06 12:19 38.86866 1.87729 17711 ft 357 kts 261°
2026-05-06 12:19 38.86536 1.84589 17261 ft 352 kts 261°
2026-05-06 12:19 38.86209 1.81493 16822 ft 347 kts 261°
2026-05-06 12:20 38.85889 1.78482 16406 ft 343 kts 261°
2026-05-06 12:20 38.85568 1.75460 15954 ft 340 kts 261°
2026-05-06 12:20 38.85249 1.72474 15527 ft 336 kts 261°
2026-05-06 12:20 38.84933 1.69517 15103 ft 333 kts 261°
2026-05-06 12:21 38.84618 1.66575 14676 ft 331 kts 261°
2026-05-06 12:21 38.84305 1.63663 14246 ft 329 kts 261°
2026-05-06 12:21 38.83988 1.60762 13774 ft 328 kts 260°
2026-05-06 12:21 38.83501 1.57896 13237 ft 327 kts 255°
2026-05-06 12:22 38.82891 1.55087 12746 ft 326 kts 254°
2026-05-06 12:22 38.82277 1.52333 12269 ft 325 kts 254°
2026-05-06 12:22 38.81658 1.49553 11954 ft 319 kts 254°
2026-05-06 12:22 38.81060 1.46868 11821 ft 308 kts 254°
2026-05-06 12:23 38.80476 1.44275 11693 ft 298 kts 253°
2026-05-06 12:23 38.79709 1.41857 11557 ft 289 kts 244°
2026-05-06 12:23 38.78796 1.39598 11427 ft 281 kts 243°
2026-05-06 12:23 38.77888 1.37419 11296 ft 273 kts 243°
2026-05-06 12:24 38.77003 1.35294 11167 ft 266 kts 243°
2026-05-06 12:24 38.76145 1.33228 11050 ft 260 kts 243°
2026-05-06 12:24 38.75311 1.31218 10919 ft 249 kts 243°
2026-05-06 12:24 38.74525 1.29327 10738 ft 233 kts 243°
2026-05-06 12:25 38.73776 1.27519 10492 ft 227 kts 243°
2026-05-06 12:25 38.73033 1.25727 10215 ft 229 kts 243°
2026-05-06 12:25 38.72275 1.23909 9876 ft 235 kts 243°
2026-05-06 12:25 38.71508 1.22072 9468 ft 233 kts 243°
2026-05-06 12:26 38.70758 1.20278 9268 ft 226 kts 243°
2026-05-06 12:26 38.70018 1.18506 9013 ft 227 kts 243°
2026-05-06 12:26 38.69270 1.16716 8727 ft 229 kts 243°
2026-05-06 12:26 38.68516 1.14911 8428 ft 231 kts 243°
2026-05-06 12:27 38.67754 1.13089 8135 ft 233 kts 242°
2026-05-06 12:27 38.66988 1.11249 7827 ft 235 kts 242°
2026-05-06 12:27 38.66212 1.09395 7506 ft 238 kts 242°
2026-05-06 12:27 38.65429 1.07529 7237 ft 239 kts 242°
2026-05-06 12:28 38.64690 1.05611 6913 ft 242 kts 250°
2026-05-06 12:28 38.64287 1.03516 6641 ft 242 kts 259°
2026-05-06 12:28 38.64016 1.01390 6386 ft 242 kts 260°
2026-05-06 12:28 38.63859 0.99242 6089 ft 244 kts 272°
2026-05-06 12:29 38.64372 0.97244 5916 ft 240 kts 305°
2026-05-06 12:29 38.65614 0.95861 5688 ft 237 kts 329°
2026-05-06 12:29 38.67097 0.94994 5464 ft 234 kts 347°
2026-05-06 12:29 38.68680 0.95187 5232 ft 229 kts 27°
2026-05-06 12:30 38.69925 0.96393 5226 ft 225 kts 47°
2026-05-06 12:30 38.70901 0.97966 5228 ft 225 kts 58°
2026-05-06 12:30 38.71687 0.99696 5228 ft 225 kts 63°
2026-05-06 12:30 38.72426 1.01469 5227 ft 226 kts 63°
2026-05-06 12:31 38.73166 1.03237 5229 ft 225 kts 63°
2026-05-06 12:31 38.73897 1.04989 5228 ft 225 kts 63°
2026-05-06 12:31 38.74632 1.06760 5114 ft 226 kts 63°
2026-05-06 12:31 38.75368 1.08532 4866 ft 225 kts 63°
2026-05-06 12:32 38.76108 1.10318 4531 ft 229 kts 63°
2026-05-06 12:32 38.76851 1.12112 4160 ft 226 kts 63°
2026-05-06 12:32 38.77571 1.13845 3805 ft 213 kts 63°
2026-05-06 12:32 38.78244 1.15469 3518 ft 200 kts 62°
2026-05-06 12:33 38.78879 1.17002 3247 ft 189 kts 62°
2026-05-06 12:33 38.79472 1.18434 3052 ft 176 kts 62°
2026-05-06 12:33 38.80037 1.19799 2794 ft 170 kts 63°
2026-05-06 12:33 38.80584 1.21120 2567 ft 165 kts 62°
2026-05-06 12:34 38.81115 1.22404 2347 ft 160 kts 62°
2026-05-06 12:34 38.81613 1.23606 2136 ft 149 kts 61°
2026-05-06 12:34 38.82080 1.24736 1947 ft 136 kts 61°
2026-05-06 12:34 38.82503 1.25758 1768 ft 125 kts 62°
2026-05-06 12:35 38.82903 1.26723 1621 ft 122 kts 62°
2026-05-06 12:35 38.83303 1.27691 1453 ft 123 kts 60°
2026-05-06 12:35 38.83705 1.28662 1278 ft 123 kts 61°
2026-05-06 12:35 38.84106 1.29632 1131 ft 124 kts 62°
2026-05-06 12:36 38.84504 1.30595 944 ft 123 kts 62°
2026-05-06 12:36 38.84906 1.31567 797 ft 125 kts 63°
2026-05-06 12:36 38.85309 1.32541 636 ft 123 kts 65°
2026-05-06 12:36 38.85707 1.33505 466 ft 123 kts 64°
2026-05-06 12:37 38.86116 1.34478 311 ft 124 kts 64°
2026-05-06 12:37 38.86509 1.35436 111 ft 119 kts 66°
2026-05-06 12:37 38.86886 1.36356 11 ft 108 kts 63°
2026-05-06 12:37 38.87156 1.37001 14 ft 56 kts 62°
2026-05-06 12:38 38.87289 1.37323 14 ft 37 kts 58°
2026-05-06 12:38 38.87456 1.37504 14 ft 13 kts 32°
2026-05-06 12:38 38.87529 1.37547 13 ft 8 kts 354°
2026-05-06 12:38 38.87546 1.37514 13 ft 4 kts 280°
2026-05-06 12:39 38.87537 1.37470 13 ft 6 kts 242°
2026-05-06 12:39 38.87512 1.37415 13 ft 9 kts 242°
2026-05-06 12:39 38.87475 1.37326 13 ft 13 kts 242°
2026-05-06 12:39 38.87430 1.37214 13 ft 15 kts 242°
2026-05-06 12:40 38.87378 1.37089 13 ft 17 kts 241°
2026-05-06 12:40 38.87329 1.36972 13 ft 7 kts 242°
2026-05-06 12:40 38.87319 1.36948 13 ft 1 kts 242°
2026-05-06 12:40 38.87315 1.36940 13 ft 1 kts 242°
2026-05-06 12:41 38.87314 1.36936 13 ft 1 kts 242°
2026-05-06 12:41 38.87305 1.36916 13 ft 4 kts 242°
2026-05-06 12:41 38.87306 1.36877 13 ft 6 kts 291°
2026-05-06 12:41 38.87348 1.36835 13 ft 9 kts 331°
2026-05-06 12:42 38.87407 1.36788 13 ft 9 kts 309°
2026-05-06 12:42 38.87401 1.36714 13 ft 6 kts 247°
2026-05-06 12:42 38.87392 1.36687 13 ft 4 kts 246°
2026-05-06 12:42 38.87386 1.36670 13 ft 1 kts 246°
2026-05-06 12:43 38.87377 1.36648 13 ft 5 kts 242°
2026-05-06 12:43 38.87349 1.36585 13 ft 10 kts 241°
2026-05-06 12:43 38.87340 1.36537 13 ft 3 kts 279°
2026-05-06 12:43 38.87349 1.36518 13 ft 2 kts 317°
2026-05-06 12:44 38.87366 1.36506 13 ft 1 kts 333°
2026-05-06 12:44 38.87379 1.36498 13 ft 3 kts 334°
2026-05-06 12:44 38.87386 1.36496 13 ft 1 kts 343°
2026-05-06 12:44 38.87392 1.36498 13 ft 1 kts
2026-05-06 12:45 38.87398 1.36499 13 ft 1 kts 11°
2026-05-06 12:45 38.87400 1.36500 13 ft 0 kts 11°